When you browse on this site, cookies collect data to enhance your experience and personalize the content and advertising you see.
Visit our Privacy Policy to learn more. By continuing to use the site, you agree to this use of cookies and data.
  • In Romania
  • List of Countries
  • For 7 days
  • Water Temperature
  • Satellite Maps
  • Weather Map
  • Weather Widgets
  • user-avatar
    Login

    Hourly Weather Sharkovo

    Today, 18 February, Monday

    Time Temperature Precipitation Wind Pressure Humidity
    00:00 -4°C° 0 mm 4 mps 745 mmHg 82%
    01:00 -5°C° 0 mm 4 mps 746 mmHg 83%
    02:00 -5°C° 0 mm 2 mps 746 mmHg 90%
    03:00 -5°C° 0 mm 2 mps 747 mmHg 91%
    04:00 -6°C° 0 mm 2 mps 747 mmHg 92%
    05:00 -7°C° 0 mm 3 mps 748 mmHg 93%
    06:00 -6°C° 0 mm 2 mps 749 mmHg 93%
    07:00 -7°C° 0 mm 2 mps 749 mmHg 94%
    08:00 -7°C° 0 mm 3 mps 749 mmHg 93%
    09:00 -7°C° 0 mm 3 mps 750 mmHg 89%
    10:00 -6°C° 0 mm 3 mps 750 mmHg 84%
    11:00 -4°C° 0 mm 2 mps 751 mmHg 80%
    12:00 -3°C° 0 mm 2 mps 751 mmHg 78%
    13:00 -3°C° 0 mm 2 mps 751 mmHg 75%
    14:00 -2°C° 0 mm 2 mps 751 mmHg 72%
    15:00 -1°C° 0 mm 1 mps 751 mmHg 77%
    16:00 -2°C° 0 mm 1 mps 751 mmHg 82%
    17:00 -3°C° 0 mm 1 mps 751 mmHg 86%
    18:00 -3°C° 0 mm 1 mps 751 mmHg 87%
    19:00 -4°C° 0 mm 1 mps 751 mmHg 88%
    20:00 -4°C° 0 mm 1 mps 751 mmHg 88%
    21:00 -4°C° 0 mm 1 mps 751 mmHg 89%
    22:00 -6°C° 0 mm 2 mps 751 mmHg 90%
    23:00 -6°C° 0 mm 2 mps 751 mmHg 90%

    Tomorrow, 19 February, Tuesday

    Time Temperature Precipitation Wind Pressure Humidity
    00:00 -6°C° 0 mm 2 mps 750 mmHg 89%
    01:00 -7°C° 0 mm 3 mps 750 mmHg 87%
    02:00 -7°C° 0 mm 3 mps 750 mmHg 85%
    03:00 -7°C° 0 mm 3 mps 749 mmHg 83%
    04:00 -8°C° 0 mm 4 mps 749 mmHg 81%
    05:00 -8°C° 0 mm 4 mps 748 mmHg 79%
    06:00 -8°C° 0 mm 4 mps 747 mmHg 79%
    07:00 -8°C° 0 mm 4 mps 747 mmHg 78%
    08:00 -7°C° 0 mm 4 mps 747 mmHg 78%
    09:00 -5°C° 0 mm 4 mps 746 mmHg 76%
    10:00 -5°C° 0 mm 5 mps 746 mmHg 75%
    11:00 -2°C° 0 mm 5 mps 745 mmHg 73%
    12:00 -2°C° 0 mm 5 mps 744 mmHg 74%
    13:00 -1°C° 0 mm 5 mps 744 mmHg 75%
    14:00 0°C° 0 mm 5 mps 743 mmHg 77%
    15:00 -1°C° 0 mm 5 mps 742 mmHg 80%
    16:00 -1°C° 0 mm 5 mps 742 mmHg 83%
    17:00 -2°C° 0 mm 4 mps 741 mmHg 86%
    18:00 -2°C° 0 mm 5 mps 741 mmHg 87%
    19:00 -1°C° 0 mm 5 mps 740 mmHg 87%
    20:00 -1°C° 0 mm 5 mps 740 mmHg 88%
    21:00 -1°C° 0 mm 5 mps 739 mmHg 89%
    22:00 -1°C° 0 mm 5 mps 738 mmHg 89%
    23:00 0°C° 0 mm 5 mps 737 mmHg 90%

    Day after tomorrow, 20 February, Wednesday

    Time Temperature Precipitation Wind Pressure Humidity
    00:00 0°C° 0 mm 5 mps 737 mmHg 90%
    01:00 0°C° 0 mm 5 mps 737 mmHg 90%
    02:00 0°C° 0 mm 5 mps 736 mmHg 90%
    03:00 0°C° 0.1 mm 4 mps 736 mmHg 91%
    04:00 0°C° 0.1 mm 4 mps 735 mmHg 91%
    05:00 0°C° 0.1 mm 4 mps 735 mmHg 91%
    06:00 0°C° 0 mm 4 mps 735 mmHg 92%
    07:00 0°C° 0 mm 4 mps 735 mmHg 93%
    08:00 0°C° 0 mm 4 mps 735 mmHg 94%
    09:00 0°C° 0.1 mm 4 mps 735 mmHg 92%
    10:00 0°C° 0.1 mm 4 mps 735 mmHg 91%
    11:00 0°C° 0.1 mm 4 mps 735 mmHg 90%
    12:00 +1°C° 0.1 mm 4 mps 735 mmHg 86%
    13:00 +1°C° 0.1 mm 4 mps 735 mmHg 82%
    14:00 +1°C° 0.1 mm 5 mps 735 mmHg 79%
    15:00 +1°C° 0 mm 5 mps 735 mmHg 80%
    16:00 0°C° 0 mm 5 mps 735 mmHg 82%
    17:00 0°C° 0 mm 5 mps 735 mmHg 84%
    18:00 0°C° 0.2 mm 5 mps 735 mmHg 85%
    19:00 0°C° 0.2 mm 5 mps 735 mmHg 85%
    20:00 0°C° 0.2 mm 5 mps 734 mmHg 85%
    21:00 -1°C° 0.3 mm 5 mps 735 mmHg 83%
    22:00 -1°C° 0.3 mm 5 mps 735 mmHg 80%
    23:00 -2°C° 0.3 mm 5 mps 735 mmHg 77%

    21 February, Thursday

    Time Temperature Precipitation Wind Pressure Humidity
    00:00 -2°C° 0.1 mm 5 mps 735 mmHg 79%
    01:00 -4°C° 0.1 mm 5 mps 736 mmHg 80%
    02:00 -4°C° 0.1 mm 5 mps 736 mmHg 81%
    03:00 -5°C° 0.1 mm 5 mps 736 mmHg 81%
    04:00 -5°C° 0.1 mm 5 mps 737 mmHg 80%
    05:00 -5°C° 0.1 mm 5 mps 737 mmHg 80%
    06:00 -5°C° 0.1 mm 5 mps 738 mmHg 77%
    07:00 -6°C° 0.1 mm 6 mps 738 mmHg 75%
    08:00 -6°C° 0.1 mm 6 mps 739 mmHg 72%
    09:00 -6°C° 0.1 mm 6 mps 740 mmHg 70%
    10:00 -8°C° 0.1 mm 6 mps 740 mmHg 68%
    11:00 -8°C° 0.1 mm 6 mps 741 mmHg 66%
    12:00 -8°C° 0 mm 6 mps 741 mmHg 65%
    13:00 -8°C° 0 mm 6 mps 742 mmHg 65%
    14:00 -8°C° 0 mm 6 mps 743 mmHg 65%
    15:00 -7°C° 0 mm 5 mps 743 mmHg 66%
    16:00 -8°C° 0 mm 5 mps 744 mmHg 67%
    17:00 -8°C° 0 mm 5 mps 745 mmHg 68%
    18:00 -10°C° 0 mm 5 mps 746 mmHg 68%
    19:00 -10°C° 0 mm 5 mps 747 mmHg 69%
    20:00 -11°C° 0 mm 5 mps 747 mmHg 70%
    21:00 -10°C° 0 mm 4 mps 748 mmHg 70%
    22:00 -11°C° 0 mm 4 mps 749 mmHg 70%
    23:00 -11°C° 0 mm 4 mps 749 mmHg 71%

    22 February, Friday

    Time Temperature Precipitation Wind Pressure Humidity
    00:00 -11°C° 0 mm 4 mps 750 mmHg 72%
    01:00 -12°C° 0 mm 4 mps 751 mmHg 73%
    02:00 -12°C° 0 mm 4 mps 752 mmHg 74%
    03:00 -12°C° 0 mm 4 mps 753 mmHg 74%
    04:00 -12°C° 0 mm 4 mps 753 mmHg 74%
    05:00 -12°C° 0 mm 4 mps 754 mmHg 74%
    06:00 -12°C° 0 mm 4 mps 755 mmHg 76%
    07:00 -12°C° 0 mm 4 mps 755 mmHg 78%
    08:00 -11°C° 0 mm 4 mps 756 mmHg 79%
    09:00 -10°C° 0 mm 4 mps 756 mmHg 75%
    10:00 -10°C° 0 mm 4 mps 757 mmHg 70%
    11:00 -9°C° 0 mm 4 mps 757 mmHg 65%
    12:00 -8°C° 0 mm 4 mps 757 mmHg 61%
    13:00 -7°C° 0 mm 5 mps 758 mmHg 58%
    14:00 -6°C° 0 mm 5 mps 758 mmHg 54%
    15:00 -7°C° 0 mm 5 mps 758 mmHg 55%
    16:00 -8°C° 0 mm 4 mps 758 mmHg 57%
    17:00 -8°C° 0 mm 4 mps 759 mmHg 58%
    18:00 -8°C° 0 mm 3 mps 759 mmHg 62%
    19:00 -8°C° 0 mm 3 mps 760 mmHg 65%
    20:00 -9°C° 0 mm 3 mps 760 mmHg 68%
    21:00 -9°C° 0 mm 3 mps 760 mmHg 71%
    22:00 -9°C° 0 mm 2 mps 760 mmHg 75%
    23:00 -9°C° 0 mm 2 mps 761 mmHg 78%

    23 February, Saturday

    Time Temperature Precipitation Wind Pressure Humidity
    00:00 -9°C° 0 mm 1 mps 760 mmHg 80%
    01:00 -9°C° 0 mm 1 mps 760 mmHg 83%
    02:00 -9°C° 0 mm 1 mps 760 mmHg 85%
    03:00 -9°C° 0 mm 1 mps 759 mmHg 86%
    04:00 -9°C° 0 mm 1 mps 759 mmHg 86%
    05:00 -9°C° 0 mm 1 mps 758 mmHg 86%
    06:00 -9°C° 0 mm 1 mps 758 mmHg 84%
    07:00 -8°C° 0 mm 1 mps 757 mmHg 81%
    08:00 -8°C° 0 mm 2 mps 757 mmHg 78%
    09:00 -8°C° 0.1 mm 2 mps 756 mmHg 81%
    10:00 -8°C° 0.1 mm 2 mps 755 mmHg 83%
    11:00 -8°C° 0.1 mm 3 mps 754 mmHg 85%
    12:00 -8°C° 0.3 mm 3 mps 754 mmHg 86%
    13:00 -7°C° 0.3 mm 3 mps 753 mmHg 87%
    14:00 -7°C° 0.3 mm 3 mps 752 mmHg 88%
    15:00 -7°C° 0.1 mm 3 mps 752 mmHg 88%
    16:00 -7°C° 0.1 mm 3 mps 751 mmHg 89%
    17:00 -6°C° 0.1 mm 2 mps 751 mmHg 90%
    18:00 -6°C° 0 mm 2 mps 751 mmHg 91%
    19:00 -6°C° 0 mm 2 mps 751 mmHg 93%
    20:00 -6°C° 0 mm 2 mps 751 mmHg 94%
    21:00 -6°C° 0 mm 2 mps 751 mmHg 95%
    22:00 -5°C° 0 mm 2 mps 751 mmHg 95%
    23:00 -5°C° 0 mm 2 mps 751 mmHg 95%
    Show more